Location: Gadern
(49.5873°N, 8.8138°E)
Time: 17:20:47
(UTC+00:00)

CENTAUR R/B - Pass Details

Date: 19 May 2025
Orbit: 645 x 1537 km, 63.4° (Epoch: 16 June)

Event Time Altitude Azimuth Distance (km) Brightness Sun altitude
Rises 21:22:16 0° 310° (NW) 3,926 7.0 -15.6°
Reaches altitude 10° 21:24:58 10° 318° (NW) 3,094 6.4 -15.8°
Maximum altitude 21:32:08 41° 27° (NNE) 1,864 4.2 -16.3°
Drops below altitude 10° 21:40:30 10° 95° (E) 3,620 5.2 -16.9°
Sets 21:43:54 0° 103° (ESE) 4,656 5.7 -17.2°
